Change the Weather History Date:

Thursday, November 8, 2012

  Actual Average Record
Temperature  
Mean Temperature 49 °F -  
Max Temperature 59 °F - - ()
Min Temperature 39 °F - - ()
Degree Days  
Heating Degree Days 16    
Moisture  
Dew Point 40 °F    
Average Humidity 78    
Maximum Humidity 93    
Minimum Humidity 36    
Precipitation  
Precipitation 0.00 in - - ()
Sea Level Pressure  
Sea Level Pressure 30.25 in    
Wind  
Wind Speed 6 mph ()    
Max Wind Speed 10 mph    
Max Gust Speed -    
T = Trace of Precipitation, MM = Missing Value Source: Averaged Metar Reports

Daily Weather History Graph

Daily Weather History Graph

Search for Another Location

Airport or City:

Trip Planner

Search our weather history database for the weather conditions in past years. The results will help you decide how hot, cold, wet, or windy it might be!

Date:

Astronomy

Nov. 08, 2012 Rise Set
Actual Time 6:34 AM CET 4:22 PM CET
Civil Twilight 6:02 AM CET 4:53 PM CET
Nautical Twilight 5:27 AM CET 5:29 PM CET
Astronomical Twilight 4:52 AM CET 6:03 PM CET
Moon No Moon Rise 1:09 PM CET (11/8)
Length of Visible Light 10h 50m
Length of Day
9h 47m
Waning Crescent, 35% of the Moon is Illuminated
Nov 8
Waning Crescent
Nov 13
New
Nov 20
First Quarter
Nov 28
Full
Dec 6
Last Quarter

Hourly Weather History & Observations

Time (CET) Temp. Windchill Dew Point Humidity Pressure Visibility Wind Dir Wind Speed Gust Speed Precip Events Conditions
12:00 AM 46.4 °F 43.5 °F 44.6 °F 93% 30.33 in - SW 5.8 mph - N/A   Clear
12:30 AM 44.6 °F 43.1 °F 42.8 °F 93% 30.33 in - SSW 3.5 mph - N/A   Clear
1:00 AM 44.6 °F 42.2 °F 42.8 °F 93% 30.33 in - SW 4.6 mph - N/A   Clear
1:30 AM 44.6 °F 42.2 °F 42.8 °F 93% 30.33 in - SSW 4.6 mph - N/A   Clear
2:00 AM - - - N/A% 30.33 in - SW 5.8 mph - N/A   Clear
2:30 AM 42.8 °F 38.6 °F 41.0 °F 93% 30.33 in - SW 6.9 mph - N/A   Clear
3:00 AM 42.8 °F 41.1 °F 41.0 °F 93% 30.33 in - SSW 3.5 mph - N/A   Clear
3:30 AM 41.0 °F 38.0 °F 39.2 °F 93% 30.33 in - SW 4.6 mph - N/A   Clear
4:00 AM 41.0 °F 38.0 °F 39.2 °F 93% 30.33 in - SW 4.6 mph - N/A   Clear
4:30 AM 39.2 °F 35.0 °F 37.4 °F 93% 30.33 in - SW 5.8 mph - N/A   Clear
5:00 AM 39.2 °F 35.9 °F 37.4 °F 93% 30.33 in - SSW 4.6 mph - N/A   Clear
5:30 AM 39.2 °F 35.0 °F 37.4 °F 93% 30.33 in - SW 5.8 mph - N/A   Clear
6:00 AM 41.0 °F 37.1 °F 39.2 °F 93% 30.33 in - SW 5.8 mph - N/A   Clear
6:30 AM 41.0 °F 39.0 °F 39.2 °F 93% 30.33 in - SW 3.5 mph - N/A   Clear
7:00 AM 41.0 °F 38.0 °F 39.2 °F 93% 30.33 in - SSW 4.6 mph - N/A   Clear
7:30 AM 41.0 °F 37.1 °F 39.2 °F 93% 30.33 in - South 5.8 mph - N/A   Clear
8:00 AM 42.8 °F 38.6 °F 41.0 °F 93% 30.33 in - South 6.9 mph - N/A   Clear
8:30 AM 42.8 °F 37.5 °F 41.0 °F 93% 30.33 in - SSW 9.2 mph - N/A   Clear
9:00 AM 46.4 °F 42.4 °F 41.0 °F 81% 30.33 in - SW 8.1 mph - N/A   Clear
9:30 AM 46.4 °F 41.5 °F 41.0 °F 81% 30.33 in - SSW 10.4 mph - N/A   Clear
10:00 AM 50.0 °F - 41.0 °F 71% 30.33 in - South 8.1 mph - N/A   Clear
10:30 AM 51.8 °F - 41.0 °F 67% 30.30 in - South 8.1 mph - N/A   Clear
11:00 AM 53.6 °F - 39.2 °F 58% 30.30 in - SSW 8.1 mph - N/A   Clear
11:30 AM 53.6 °F - 39.2 °F 58% 30.30 in - SW 9.2 mph - N/A   Clear
12:00 PM 55.4 °F - 35.6 °F 47% 30.27 in - SW 8.1 mph - N/A   Clear
12:30 PM 57.2 °F - 35.6 °F 44% 30.27 in - SSW 6.9 mph - N/A   Clear
1:00 PM 57.2 °F - 33.8 °F 41% 30.27 in - SSW 6.9 mph - N/A   Clear
1:30 PM 59.0 °F - 33.8 °F 39% 30.24 in - SSW 6.9 mph - N/A   Clear
2:00 PM 59.0 °F - 32.0 °F 36% 30.24 in - SSW 6.9 mph - N/A   Clear
2:30 PM 59.0 °F - 32.0 °F 36% 30.21 in - SSW 9.2 mph - N/A   Clear
3:00 PM 59.0 °F - 32.0 °F 36% 30.21 in - SSW 6.9 mph - N/A   Clear
3:30 PM 59.0 °F - 32.0 °F 36% 30.18 in - South 6.9 mph - N/A   Clear
4:00 PM 57.2 °F - 39.2 °F 51% 30.18 in - SSE 5.8 mph - N/A   Clear
4:30 PM 55.4 °F - 39.2 °F 54% 30.18 in - SSE 6.9 mph - N/A   Clear
5:00 PM 51.8 °F - 44.6 °F 76% 30.18 in - SE 8.1 mph - N/A   Clear
5:30 PM 50.0 °F - 44.6 °F 82% 30.18 in - SE 8.1 mph - N/A   Clear
6:00 PM 48.2 °F - 42.8 °F 82% 30.18 in - SE 8.1 mph - N/A   Clear
6:30 PM 46.4 °F 41.5 °F 42.8 °F 87% 30.15 in - SE 10.4 mph - N/A   Clear
7:00 PM 46.4 °F 42.4 °F 42.8 °F 87% 30.15 in - SE 8.1 mph - N/A   Clear
7:30 PM 44.6 °F 40.2 °F 41.0 °F 87% 30.15 in - SE 8.1 mph - N/A   Clear
8:00 PM 44.6 °F 40.7 °F 42.8 °F 93% 30.12 in - SE 6.9 mph - N/A   Clear
8:30 PM 44.6 °F 40.7 °F 42.8 °F 93% 30.12 in - SE 6.9 mph - N/A   Clear
9:00 PM 44.6 °F 40.7 °F 42.8 °F 93% 30.12 in - ESE 6.9 mph - N/A   Clear
9:30 PM 44.6 °F 40.2 °F 42.8 °F 93% 30.12 in - SE 8.1 mph - N/A   Clear
10:00 PM 42.8 °F 38.0 °F 41.0 °F 93% 30.12 in - SE 8.1 mph - N/A   Clear
10:30 PM 42.8 °F 38.6 °F 41.0 °F 93% 30.09 in - ESE 6.9 mph - N/A   Clear
11:00 PM 41.0 °F 37.1 °F 39.2 °F 93% 30.09 in - SE 5.8 mph - N/A   Clear
11:30 PM 41.0 °F 37.1 °F 39.2 °F 93% 30.09 in - SSE 5.8 mph - N/A   Clear